Regional Weather Roundup
Issued by NWS Newport/Morehead, NC

Current Version | Previous Version | Graphics & Text | Print | Product List | Glossary On
Versions: 1 2 3 4 5 6 7 8 9 10 11 12 13 14 15 16 17 18 19 20 21 22 23 24 25 26 27 28 29 30 31 32 33 34 35 36 37 38 39 40 41 42 43 44 45 46 47 48 49 50
000 ASUS42 KMHX 271525 RWRMHX WEATHER ROUNDUP FOR EASTERN NORTH CAROLINA NATIONAL WEATHER SERVICE NEWPORT/MOREHEAD CITY NC 1100 AM EDT SAT MAY 27 2017 NOTE: "FAIR" INDICATES FEW OR NO CLOUDS BELOW 12,000 FEET WITH NO SIGNIFICANT WEATHER AND/OR OBSTRUCTIONS TO VISIBILITY NCZ015>017-031-032-045>047-102-103-271600- NORTH COAST CITY SKY/WX TMP DP RH WIND PRES REMARKS EDENTON SUNNY 78 63 59 CALM 29.93S ELIZABETH CITY SUNNY 79 66 64 S7 29.92F KITTY HAWK SUNNY 77 61 58 CALM 29.92F MANTEO SUNNY 79 62 57 CALM 29.93F $$ NCZ045>047-081-094-103-104-271600- CENTRAL COAST CITY SKY/WX TMP DP RH WIND PRES REMARKS FRISCO SUNNY 80 66 62 SW8 29.96S $$ NCZ095-097-098-100-101-271600- SOUTHERN COAST CITY SKY/WX TMP DP RH WIND PRES REMARKS BEAUFORT SUNNY 79 68 69 SW14 29.96F CEDAR ISLAND NOT AVBL JACKSONVILLE SUNNY 83 64 52 S7 29.95F PINEY ISLAND SUNNY N/A N/A N/A SW12 29.95F WILMINGTON SUNNY 84 64 50 W8 29.96F $$ NCZ011>013-027>030-043-044-078>080-089-090>093-098-271600- COASTAL PLAIN CITY SKY/WX TMP DP RH WIND PRES REMARKS AHOSKIE NOT AVBL CLINTON SUNNY 80 66 62 SW6 29.95F ELIZABETHTOWN SUNNY 82 63 52 W8 29.96F GOLDSBORO NOT AVBL GREENVILLE SUNNY 81 63 54 SW5 29.96S HAVELOCK SUNNY 83 61 47 SW10 29.96F KENANSVILLE SUNNY 82 64 54 SW5 29.95S KINSTON SUNNY 82 63 51 SW3 29.95F NEW BERN SUNNY 82 64 54 SW10 29.96F RICHLANDS SUNNY 85 66 53 SW10 29.95F ROCKY MOUNT SUNNY 80 64 58 VRB3 29.94S WASHINGTON SUNNY 80 64 58 SW6 29.94S WHITEVILLE SUNNY 81 65 57 SW5 29.96F $$ AMZ130-135-150-152-154-156-158-170-250-252-270-ANZ085-086-088-633-658-670-271600- MARINE OBSERVATIONS STATION/POSITION TIME TEMP WIND PRES WAVE SWELL AIR SEA DIR/SP/G HT/PER HT/PER (UTC) (F) (DEG/KT/KT) (MB) (FT/S) (FT/S) CHESAPEAKE LIGHT NOT AVBL 64 E VA BEACH 1450 66 63 160/ 6/ 6 1013.9 3/ 8 3/ 8 DUCK 1500 71 63 130/ 6/ 7 1012.8 2 E DUCK 1500 65 N/A 1/ 8 OREGON INLET 1500 73 71 180/ 8/ 9 1013.6 13E OREGON INLT 1448 69 N/A 3/ 6 2/ 6 HATTERAS CG 1500 77 72 210/ 9/ 12 1014.3 DIAMOND BUOY 1450 76 77 230/ 10/ 12 1014.4 3/ 8 3/ 8 CAPE LOOKOUT 1500 76 230/ 10/ 14 1014.4 BEAUFORT LAB 1500 77 71 220/ 5/ 10 1013.9 30 SE NEW RVR IN 1508 76 77 240/ 12/ 14 1015.1 30 SE NEW RVR IN 1513 77 N/A 3/ 6 27 SE WRIGHTSVLE 1508 75 77 210/ 14/ 17 1014.8 5 SE WRIGHTSVLE 1508 75 74 200/ 10/ 16 1014.7 225 S CAPE HAT 1450 76 77 260/ 10/ 12 1017.2 4/ 7 3/ 7 41 SE CHARLESTON 1510 75 74 220/ 12/ 14 1016.5 $$

USA.gov is the U.S. government's official web portal to all federal, state and local government web resources and services.